SOYUZ-MS 24

Last updated on Sat Apr 06 2024 00:02:07 GMT+0000 (Coordinated Universal Time)

1 57862U 23143A 24096.44204133 .00011842 00000+0 21567-3 0 9992 2 57862 51.6384 316.0742 0004625 38.0696 322.0618 15.49926484 31300
UTC large
Height (km)
Speed (km/s)
/
Latitude / Longitude
Inclination (degrees)
Orbital Period (minutes)
Azimuth
Elevation
Range (km)
Doppler Factor

Next 0 passes for location: London (51.5072 / 0.1276)

Sorry there are no passes over London.